�������l�o���
Date,Time,MP-1(��Sv/h),MP-2(��Sv/h),MP-3(��Sv/h),MP-4(��Sv/h),MP-5(��Sv/h),MP-6(��Sv/h),MP-7(��Sv/h),MP-8(��Sv/h),����,����(m/s),���J
2021/05/02,00:00,0.606,0.885,0.566,1.082,0.756,0.365,0.633,0.599,�k�k��,6.1,��
2021/05/02,00:10,0.605,0.885,0.565,1.082,0.760,0.364,0.632,0.596,�k�k��,5.5,��
2021/05/02,00:20,0.604,0.885,0.565,1.082,0.758,0.365,0.633,0.597,�k�k��,4.8,��
2021/05/02,00:30,0.604,0.887,0.565,1.081,0.757,0.365,0.633,0.597,�k,4.3,��
2021/05/02,00:40,0.604,0.887,0.565,1.085,0.760,0.365,0.633,0.599,�k,4.0,��
2021/05/02,00:50,0.604,0.886,0.565,1.082,0.759,0.365,0.633,0.599,�k,2.9,��
2021/05/02,01:00,0.604,0.887,0.566,1.084,0.759,0.364,0.634,0.599,�k,3.7,��
2021/05/02,01:10,0.605,0.887,0.566,1.085,0.759,0.364,0.634,0.598,�k,3.7,��
2021/05/02,01:20,0.603,0.886,0.567,1.085,0.759,0.364,0.635,0.596,�k,3.0,��
2021/05/02,01:30,0.604,0.887,0.566,1.085,0.758,0.364,0.635,0.597,�k,2.2,��
2021/05/02,01:40,0.604,0.888,0.566,1.085,0.760,0.364,0.634,0.598,�k��,1.5,��
2021/05/02,01:50,0.603,0.887,0.566,1.086,0.760,0.365,0.635,0.598,�k��,2.2,��
2021/05/02,02:00,0.604,0.888,0.566,1.087,0.760,0.365,0.635,0.599,�k�k��,1.9,��
2021/05/02,02:10,0.604,0.886,0.565,1.085,0.761,0.364,0.635,0.598,�k�k��,1.5,��
2021/05/02,02:20,0.605,0.886,0.566,1.087,0.761,0.365,0.633,0.599,�k�k��,1.7,��
2021/05/02,02:30,0.604,0.889,0.565,1.088,0.762,0.364,0.633,0.599,�k�k��,1.5,��
2021/05/02,02:40,0.603,0.888,0.566,1.086,0.762,0.365,0.634,0.599,�k��,1.2,��
2021/05/02,02:50,0.606,0.889,0.567,1.089,0.760,0.365,0.636,0.598,�k��,1.2,��
2021/05/02,03:00,0.605,0.888,0.567,1.087,0.761,0.365,0.635,0.598,���k��,0.6,��
2021/05/02,03:10,0.606,0.888,0.565,1.089,0.762,0.365,0.635,0.600,�k��,0.6,�L
2021/05/02,03:20,0.606,0.889,0.567,1.086,0.761,0.366,0.636,0.598,���k��,1.9,��
2021/05/02,03:30,0.605,0.889,0.566,1.091,0.760,0.365,0.635,0.599,�k�k��,2.9,�L
2021/05/02,03:40,0.606,0.889,0.566,1.090,0.763,0.365,0.635,0.598,�k�k��,2.0,�L
2021/05/02,03:50,0.604,0.887,0.567,1.089,0.763,0.366,0.635,0.599,�k��,3.8,�L
2021/05/02,04:00,0.604,0.890,0.567,1.088,0.762,0.366,0.637,0.600,���k��,8.1,�L
2021/05/02,04:10,0.600,0.884,0.563,1.082,0.755,0.366,0.635,0.599,�k�k��,5.6,�L
2021/05/02,04:20,0.599,0.882,0.565,1.083,0.756,0.366,0.635,0.597,�k�k��,5.9,�L
2021/05/02,04:30,0.600,0.880,0.565,1.084,0.756,0.367,0.632,0.600,�k�k��,4.6,�L
2021/05/02,04:40,0.600,0.879,0.565,1.082,0.753,0.367,0.634,0.596,�k,3.3,�L
2021/05/02,04:50,0.601,0.878,0.566,1.078,0.755,0.366,0.633,0.597,�k,5.9,�L
2021/05/02,05:00,0.602,0.879,0.565,1.079,0.755,0.367,0.633,0.596,�k�k��,5.5,�L
2021/05/02,05:10,0.601,0.876,0.566,1.078,0.755,0.367,0.631,0.596,�k��,4.5,�L
2021/05/02,05:20,0.601,0.874,0.565,1.076,0.751,0.365,0.631,0.596,�k,6.3,�L
2021/05/02,05:30,0.600,0.875,0.566,1.077,0.753,0.367,0.633,0.596,�k,5.8,�L
2021/05/02,05:40,0.601,0.880,0.566,1.078,0.754,0.366,0.632,0.597,�k,5.3,�L
2021/05/02,05:50,0.601,0.879,0.566,1.077,0.754,0.365,0.633,0.595,�k�k��,4.7,�L
2021/05/02,06:00,0.601,0.879,0.565,1.077,0.755,0.365,0.631,0.595,�k,4.9,�L
2021/05/02,06:10,0.601,0.877,0.564,1.078,0.753,0.365,0.630,0.597,�k�k��,5.1,�L
2021/05/02,06:20,0.601,0.879,0.566,1.076,0.754,0.365,0.633,0.597,�k�k��,4.5,�L
2021/05/02,06:30,0.601,0.879,0.566,1.078,0.755,0.364,0.632,0.597,�k�k��,3.9,�L
2021/05/02,06:40,0.602,0.879,0.566,1.076,0.752,0.366,0.633,0.596,�k�k��,4.0,�L
2021/05/02,06:50,0.604,0.878,0.566,1.075,0.751,0.366,0.632,0.597,�k�k��,3.7,�L
2021/05/02,07:00,0.604,0.877,0.567,1.075,0.753,0.369,0.631,0.598,�k��,3.5,�L
2021/05/02,07:10,0.605,0.878,0.569,1.074,0.754,0.369,0.631,0.596,�k�k��,2.0,�L
2021/05/02,07:20,0.605,0.880,0.569,1.074,0.753,0.370,0.631,0.595,���k��,2.0,�L
2021/05/02,07:30,0.605,0.879,0.571,1.073,0.752,0.369,0.631,0.596,���k��,1.7,�L
2021/05/02,07:40,0.605,0.881,0.570,1.076,0.754,0.369,0.629,0.596,���k��,1.7,�L
2021/05/02,07:50,0.606,0.882,0.569,1.074,0.753,0.368,0.630,0.596,���k��,2.0,�L
2021/05/02,08:00,0.604,0.880,0.569,1.078,0.755,0.367,0.631,0.595,���k��,1.2,�L
2021/05/02,08:10,0.604,0.880,0.567,1.076,0.754,0.367,0.631,0.595,�k��,0.9,��
2021/05/02,08:20,0.604,0.883,0.567,1.077,0.755,0.365,0.632,0.595,��,0.8,��
2021/05/02,08:30,0.603,0.879,0.567,1.078,0.753,0.366,0.632,0.596,�k��,0.9,�L
2021/05/02,08:40,0.603,0.881,0.564,1.077,0.755,0.366,0.632,0.597,�쓌,0.8,�L
2021/05/02,08:50,0.603,0.880,0.565,1.076,0.754,0.366,0.632,0.596,�k��,0.9,�L
2021/05/02,09:00,0.603,0.883,0.564,1.079,0.753,0.366,0.633,0.596,��,1.9,�L
2021/05/02,09:10,0.603,0.883,0.564,1.079,0.754,0.366,0.632,0.596,���쓌,2.5,�L
2021/05/02,09:20,0.604,0.883,0.565,1.076,0.755,0.364,0.632,0.595,��,2.2,�L
2021/05/02,09:30,0.603,0.880,0.564,1.077,0.755,0.364,0.632,0.595,���쓌,2.3,��
2021/05/02,09:40,0.604,0.880,0.566,1.080,0.756,0.363,0.632,0.594,���쓌,2.3,��
2021/05/02,09:50,0.604,0.881,0.567,1.082,0.754,0.363,0.633,0.595,���쓌,1.7,�L
2021/05/02,10:00,0.602,0.878,0.566,1.081,0.753,0.364,0.632,0.593,��,1.7,�L
2021/05/02,10:10,0.600,0.874,0.564,1.081,0.754,0.364,0.633,0.594,��,1.9,�L
2021/05/02,10:20,0.603,0.879,0.564,1.082,0.754,0.362,0.634,0.592,���쓌,1.2,��
2021/05/02,10:30,0.603,0.878,0.565,1.083,0.756,0.364,0.634,0.596,���쓌,1.4,��
2021/05/02,10:40,0.604,0.879,0.566,1.081,0.755,0.364,0.634,0.596,���쓌,2.6,��
2021/05/02,10:50,0.605,0.879,0.567,1.081,0.756,0.363,0.634,0.595,�쓌,2.6,��
2021/05/02,11:00,0.605,0.884,0.568,1.085,0.756,0.362,0.635,0.595,�쓌,2.3,��
2021/05/02,11:10,0.604,0.883,0.567,1.086,0.757,0.365,0.635,0.595,�쓌,2.6,��
2021/05/02,11:20,0.604,0.884,0.564,1.083,0.758,0.364,0.635,0.597,���쓌,2.8,��
2021/05/02,11:30,0.604,0.886,0.566,1.084,0.759,0.364,0.636,0.596,�쓌,2.2,�L
2021/05/02,11:40,0.607,0.886,0.567,1.083,0.758,0.364,0.636,0.596,�쓌,3.0,�L
2021/05/02,11:50,0.606,0.885,0.565,1.081,0.759,0.365,0.635,0.596,�쓌,2.9,�L
2021/05/02,12:00,0.604,0.885,0.564,1.079,0.758,0.367,0.634,0.598,���쓌,3.6,�L
2021/05/02,12:10,0.604,0.883,0.565,1.082,0.760,0.364,0.634,0.596,�쓌,3.5,��
2021/05/02,12:20,0.607,0.885,0.566,1.081,0.761,0.366,0.636,0.596,�쓌,3.1,�L
2021/05/02,12:30,0.605,0.886,0.566,1.084,0.762,0.365,0.635,0.596,���쓌,3.3,��
2021/05/02,12:40,0.606,0.886,0.569,1.086,0.759,0.366,0.636,0.598,��쓌,2.8,��
2021/05/02,12:50,0.605,0.886,0.568,1.088,0.761,0.365,0.637,0.597,��쓌,3.7,��
2021/05/02,13:00,0.606,0.888,0.567,1.087,0.762,0.365,0.636,0.598,�쓌,2.8,��
2021/05/02,13:10,0.605,0.887,0.569,1.088,0.762,0.365,0.637,0.597,��쓌,4.4,��
2021/05/02,13:20,0.607,0.889,0.566,1.086,0.762,0.365,0.636,0.596,��쓌,4.8,��
2021/05/02,13:30,0.607,0.889,0.567,1.090,0.761,0.364,0.637,0.598,��쓌,5.1,��
2021/05/02,13:40,0.607,0.890,0.567,1.088,0.762,0.364,0.637,0.597,��쓌,4.1,��
2021/05/02,13:50,0.608,0.887,0.567,1.090,0.763,0.365,0.639,0.596,��,3.1,�L
2021/05/02,14:00,0.608,0.884,0.569,1.088,0.764,0.367,0.638,0.598,��,3.9,�L
2021/05/02,14:10,0.594,0.864,0.561,1.071,0.749,0.365,0.633,0.595,�k��,2.3,�L
2021/05/02,14:20,0.600,0.871,0.565,1.069,0.749,0.368,0.631,0.594,���쓌,1.2,�L
2021/05/02,14:30,0.603,0.874,0.567,1.071,0.752,0.368,0.632,0.595,�쓌,2.8,��
2021/05/02,14:40,0.604,0.875,0.567,1.072,0.753,0.367,0.632,0.594,�쓌,2.6,��
2021/05/02,14:50,0.603,0.876,0.569,1.074,0.754,0.368,0.634,0.595,��,2.0,��
2021/05/02,15:00,0.605,0.880,0.567,1.073,0.753,0.367,0.630,0.595,��쐼,2.0,��
2021/05/02,15:10,0.605,0.882,0.566,1.076,0.753,0.367,0.631,0.596,��쓌,0.9,��
2021/05/02,15:20,0.605,0.880,0.566,1.076,0.753,0.367,0.634,0.598,�k�k��,0.6,��
2021/05/02,15:30,0.604,0.882,0.566,1.074,0.754,0.367,0.631,0.596,�쐼,0.8,��
2021/05/02,15:40,0.605,0.882,0.565,1.077,0.756,0.366,0.633,0.596,��쐼,1.5,��
2021/05/02,15:50,0.602,0.881,0.566,1.075,0.756,0.367,0.631,0.598,��쐼,2.6,��
2021/05/02,16:00,0.605,0.882,0.563,1.075,0.755,0.365,0.632,0.596,��,2.6,��
2021/05/02,16:10,0.603,0.882,0.565,1.078,0.757,0.365,0.634,0.597,�쐼,0.9,�L
2021/05/02,16:20,0.602,0.881,0.564,1.073,0.756,0.365,0.634,0.597,��쓌,1.9,��
2021/05/02,16:30,0.600,0.883,0.563,1.076,0.755,0.365,0.631,0.597,��,3.2,��
2021/05/02,16:40,0.602,0.882,0.564,1.076,0.754,0.365,0.632,0.596,��쐼,4.2,��
2021/05/02,16:50,0.605,0.885,0.566,1.075,0.755,0.367,0.633,0.596,��쐼,5.3,��
2021/05/02,17:00,0.603,0.880,0.564,1.078,0.756,0.364,0.634,0.597,��쐼,4.8,�L
2021/05/02,17:10,0.601,0.883,0.564,1.079,0.756,0.365,0.632,0.599,��쐼,3.6,��
2021/05/02,17:20,0.603,0.883,0.564,1.077,0.757,0.365,0.631,0.596,�쐼,2.5,��
2021/05/02,17:30,0.602,0.884,0.564,1.079,0.756,0.365,0.634,0.598,��,2.2,��
2021/05/02,17:40,0.603,0.886,0.564,1.077,0.756,0.364,0.634,0.597,��,1.4,��
2021/05/02,17:50,0.604,0.884,0.564,1.081,0.756,0.365,0.634,0.596,���k��,1.9,��
2021/05/02,18:00,0.601,0.885,0.565,1.080,0.755,0.362,0.633,0.597,���k��,3.5,�L
2021/05/02,18:10,0.602,0.882,0.564,1.080,0.757,0.365,0.634,0.598,���k��,3.7,�L
2021/05/02,18:20,0.606,0.885,0.566,1.080,0.757,0.366,0.635,0.597,���k��,3.8,�L
2021/05/02,18:30,0.604,0.885,0.565,1.081,0.758,0.365,0.635,0.598,���k��,4.2,��
2021/05/02,18:40,0.603,0.885,0.565,1.081,0.757,0.367,0.634,0.598,�k��,3.6,�L
2021/05/02,18:50,0.604,0.884,0.564,1.083,0.755,0.366,0.634,0.599,���k��,4.7,�L
2021/05/02,19:00,0.602,0.883,0.566,1.081,0.757,0.364,0.634,0.599,���k��,6.1,�L
2021/05/02,19:10,0.604,0.882,0.565,1.081,0.757,0.366,0.635,0.598,�k��,9.5,�L
2021/05/02,19:20,0.603,0.884,0.565,1.084,0.758,0.364,0.635,0.598,�k�k��,10.0,�L
2021/05/02,19:30,0.604,0.885,0.565,1.082,0.760,0.364,0.635,0.597,�k��,9.9,�L
2021/05/02,19:40,0.602,0.884,0.567,1.082,0.756,0.365,0.635,0.598,�k��,8.5,�L
2021/05/02,19:50,0.602,0.883,0.566,1.082,0.759,0.366,0.634,0.600,���k��,7.8,��
2021/05/02,20:00,0.602,0.885,0.567,1.082,0.758,0.364,0.634,0.598,�k��,9.9,��
2021/05/02,20:10,0.602,0.885,0.564,1.080,0.759,0.365,0.635,0.599,�k��,11.0,��
2021/05/02,20:20,0.604,0.883,0.565,1.082,0.759,0.365,0.632,0.598,�k��,9.9,��
2021/05/02,20:30,0.602,0.885,0.565,1.083,0.760,0.364,0.633,0.598,�k��,8.8,��
2021/05/02,20:40,0.602,0.884,0.565,1.083,0.759,0.363,0.635,0.598,�k��,9.1,��
2021/05/02,20:50,0.601,0.882,0.567,1.084,0.759,0.365,0.632,0.598,�k��,9.3,��
2021/05/02,21:00,0.601,0.884,0.565,1.083,0.759,0.364,0.635,0.599,�k�k��,7.6,��
2021/05/02,21:10,0.603,0.885,0.564,1.086,0.760,0.363,0.635,0.598,�k�k��,7.6,��
2021/05/02,21:20,0.601,0.883,0.564,1.085,0.759,0.365,0.634,0.598,�k�k��,6.1,��
2021/05/02,21:30,0.602,0.886,0.563,1.087,0.759,0.363,0.634,0.597,�k��,6.1,��
2021/05/02,21:40,0.603,0.885,0.564,1.087,0.758,0.365,0.636,0.599,�k��,8.9,��
2021/05/02,21:50,0.602,0.883,0.565,1.088,0.759,0.365,0.636,0.597,�k��,8.8,��
2021/05/02,22:00,0.601,0.885,0.565,1.088,0.759,0.366,0.634,0.598,���k��,11.3,��
2021/05/02,22:10,0.602,0.885,0.565,1.088,0.760,0.364,0.636,0.598,�k��,9.2,��
2021/05/02,22:20,0.603,0.889,0.565,1.087,0.759,0.364,0.636,0.598,�k��,9.6,��
2021/05/02,22:30,0.602,0.887,0.566,1.086,0.761,0.365,0.634,0.598,�k��,9.1,��
2021/05/02,22:40,0.602,0.889,0.567,1.087,0.759,0.364,0.636,0.599,�k��,11.6,��
2021/05/02,22:50,0.602,0.885,0.566,1.086,0.762,0.365,0.635,0.598,�k��,9.9,��
2021/05/02,23:00,0.604,0.886,0.566,1.088,0.760,0.366,0.636,0.600,�k��,7.8,��
2021/05/02,23:10,0.603,0.886,0.564,1.088,0.762,0.365,0.633,0.599,�k��,8.8,��
2021/05/02,23:20,0.602,0.886,0.567,1.088,0.760,0.364,0.635,0.599,�k��,9.3,��
2021/05/02,23:30,0.602,0.886,0.565,1.089,0.763,0.364,0.635,0.600,�k��,10.2,��
2021/05/02,23:40,0.603,0.889,0.567,1.087,0.762,0.364,0.635,0.598,�k��,8.9,��
2021/05/02,23:50,0.604,0.885,0.565,1.088,0.762,0.364,0.635,0.599,�k��,7.8,��
